Find Ekran

NORAD ID: 13554 Int'l Des: 1982-093 Owner: MSVYAZ Country: SU operational
HEOCIRCULARGSO

現在のビュー

3D地球を読み込み中...

About Ekran

Ekran (NORAD 13554) is a satellite launched Sep 16, 1982 by MSVYAZ of SU. It operates in HEO, CIRCULAR, GSO orbit with a mass of 2000.00 kg.

次回通過

Passes for default location (London). Set your location on the main map for personalized predictions.

高度履歴

Loading altitude history...

軌道要素

1 13554U 82093A 26194.88929700 -.00000174 00000-0 00000+0 0 9997
2 13554 7.0276 299.5021 0026798 10.5399 27.1684 1.00209450120270
Epoch: Jul 13, 2026 • Age: 26 hours

現在のステータス

高度 35733.0 km
遠地点 / 近地点 N/A
速度 3.08 km/s
衛星直下点 6.22°N, 85.13°E
打ち上げ日 Sep 16, 1982
運用期間 43.8 years
タイプ other

技術仕様

分類 Payload
質量 2000.00 kg
乾燥質量 1850.00 kg
総質量 2000.00 kg
長さ 5.50 m
直径 2.50 m
スパン 9.00 m
形状 Cyl + 2 Pan + Plate
製造者 NPOPM
バスタイプ Ekran
フェーズステータス In Orbit
所有者/国 MSVYAZ/SU

Most Searched